Theta_e
322 322 322 322 321 321 320 320 319 319 318 319 319 320 320 320 320 320 320 320 320 321 323 324 324 325 324 324 324 324 323 322 321 321 322 323 324 325 325 325 325 325 325 326 326 326 326 326 326 326 326 326 326 325 325 325 325 324 323 323 321 319 317 317 317 318 320 319 318 315 313 312 311 311 311 311 312 312 312 312 312 312 313 313 312 312
321 321 321 321 321 320 320 319 319 318 318 319 319 320 320 320 320 320 321 321 321 322 323 324 325 325 324 324 324 323 322 322 321 321 322 323 324 325 325 325 325 325 325 326 326 326 326 325 326 326 326 326 326 325 325 325 325 324 324 323 321 319 317 317 318 319 321 320 317 314 312 312 312 312 312 313 313 313 313 312 312 313 313 313 313 312
322 322 321 321 321 320 320 319 319 318 318 319 319 320 320 320 320 320 321 321 321 322 324 325 325 325 324 324 324 323 322 322 322 322 322 324 325 325 325 325 325 325 325 326 326 326 326 325 326 326 326 326 326 325 325 325 325 325 324 323 321 319 318 318 319 320 321 319 316 313 312 312 312 312 313 313 314 314 313 313 312 313 313 313 313 313
322 322 321 321 321 321 320 319 319 318 318 319 319 320 320 320 320 320 321 321 322 323 324 325 325 325 324 324 324 323 322 322 322 322 323 324 325 325 325 325 325 325 325 326 326 326 326 326 325 326 326 326 326 325 325 325 325 324 323 321 320 318 318 319 320 321 321 318 315 312 311 311 312 312 314 315 315 315 314 313 313 313 313 313 313 313
321 322 321 321 321 321 321 320 320 319 319 320 320 320 320 320 320 321 321 321 322 323 325 326 326 325 324 324 324 323 323 322 322 322 323 324 325 325 325 325 325 325 325 326 326 326 326 326 326 326 326 326 326 325 325 325 324 324 323 320 319 319 320 320 321 320 319 317 314 312 311 311 311 312 313 315 315 315 314 313 313 312 312 312 312 311
321 321 321 321 321 321 321 321 321 320 320 320 321 320 320 320 320 321 321 321 322 323 325 326 326 325 325 324 324 323 323 322 323 323 323 324 325 325 325 325 325 325 325 326 326 326 326 326 326 326 326 326 326 325 325 325 324 324 322 321 320 320 320 321 320 319 318 315 313 312 311 311 311 311 311 313 313 313 313 312 311 311 311 310 310 310
321 321 321 321 321 321 321 321 321 321 321 321 321 321 321 321 321 321 321 321 322 323 325 326 326 325 325 325 324 324 323 323 323 324 324 324 325 325 325 324 324 325 325 326 326 326 326 326 326 326 326 326 326 326 325 325 324 323 322 321 321 320 320 320 319 318 316 314 312 311 311 311 311 311 311 311 311 311 311 310 310 310 310 309 309 309
320 321 321 321 322 322 322 322 322 322 321 321 321 321 320 320 320 320 321 321 322 324 326 326 326 326 325 325 325 324 323 324 324 324 324 324 325 325 325 324 324 324 325 326 326 326 327 326 327 326 326 326 326 326 325 325 323 322 321 321 320 320 319 319 318 316 314 312 311 311 310 311 312 312 311 311 310 310 310 310 309 309 309 309 309 309
321 321 321 321 322 322 322 322 322 322 321 321 321 321 320 320 320 320 321 321 323 324 326 326 326 326 326 326 325 324 324 324 324 324 324 324 324 324 324 323 323 323 324 325 326 326 327 327 327 327 327 326 326 326 325 324 323 322 321 320 320 319 318 317 316 314 312 311 311 310 310 310 311 312 312 311 311 310 310 310 310 309 309 309 309 309
321 321 321 321 321 321 322 322 322 322 321 321 321 321 320 320 320 320 321 322 323 325 326 327 326 326 326 326 325 324 324 324 324 324 324 324 324 323 323 322 322 323 324 325 326 326 326 327 327 326 326 326 326 325 324 323 322 321 320 320 319 317 316 315 314 313 311 311 310 310 310 310 311 311 311 311 310 310 310 309 310 310 310 310 309 309
321 321 321 321 321 321 321 322 322 322 321 321 320 320 320 320 321 321 321 322 323 325 327 327 327 326 326 326 325 324 324 324 324 324 324 324 323 322 322 321 322 322 323 324 325 326 326 326 326 326 326 325 325 324 323 322 321 321 320 319 318 316 315 314 312 311 310 310 310 310 310 310 311 311 310 310 310 309 309 308 309 309 310 310 310 309
322 321 321 321 321 321 321 322 322 321 321 320 319 319 319 319 320 321 321 322 323 325 327 327 327 326 326 325 324 324 324 324 324 324 324 324 323 322 321 321 321 322 323 324 325 326 326 325 325 325 325 324 324 323 322 322 321 320 319 318 317 316 314 313 312 311 310 310 311 311 311 311 311 311 310 310 309 309 308 308 308 308 309 310 310 310
322 322 321 321 321 321 321 321 321 320 319 318 318 318 319 319 320 321 320 322 323 325 327 327 327 327 326 325 324 323 323 323 323 324 323 323 322 322 321 321 321 322 322 324 325 325 325 324 323 323 323 323 323 322 321 321 320 319 318 318 316 315 314 313 312 311 311 311 311 311 311 311 311 310 310 309 308 308 307 307 307 307 307 309 310 310
322 322 321 321 321 321 321 321 320 319 318 319 319 319 320 320 320 321 321 322 324 325 327 327 327 327 326 324 323 322 322 323 323 323 323 323 322 321 321 321 321 322 323 324 325 325 324 323 323 322 322 322 321 321 320 320 319 318 318 317 315 314 313 312 312 311 311 311 311 311 310 310 310 309 309 308 307 307 306 306 306 306 307 308 308 309
322 321 321 320 320 320 320 320 320 320 319 319 319 319 320 320 321 321 322 323 324 326 327 328 327 326 325 323 322 321 321 322 322 322 322 322 321 321 321 321 321 322 323 324 325 324 324 323 322 322 322 321 320 320 320 319 318 318 317 316 315 313 312 312 311 311 310 310 310 310 310 309 309 308 308 307 307 306 306 306 306 306 306 307 307 308
323 321 320 320 320 321 321 321 320 320 319 319 319 319 319 320 320 321 322 323 324 326 327 327 327 326 324 323 321 321 321 321 321 322 322 321 321 321 321 321 321 322 323 324 324 324 323 322 321 321 321 320 320 319 319 318 318 317 316 315 314 313 312 311 310 310 310 310 310 309 309 308 308 308 307 307 306 306 305 305 305 306 306 306 306 306
323 322 321 321 321 321 321 321 321 320 319 319 318 318 319 320 320 321 322 323 325 326 327 327 326 325 324 322 321 320 320 321 321 321 321 320 320 320 320 321 322 323 323 324 324 323 323 322 321 321 320 320 319 318 318 317 317 316 315 314 313 312 311 310 310 309 309 309 309 308 308 307 307 307 306 306 306 305 305 305 305 305 305 306 306 306
323 322 321 321 321 321 321 321 321 320 319 319 318 319 319 320 320 321 322 324 325 326 327 327 326 324 323 322 321 320 320 320 320 320 320 320 320 320 320 321 322 322 323 324 323 323 322 321 321 320 320 319 318 318 317 316 316 315 314 313 312 311 310 310 309 309 308 308 308 307 307 306 306 306 306 305 305 305 305 305 305 305 305 305 305 306
322 322 321 321 321 321 321 321 321 320 319 319 319 319 319 320 320 321 323 324 326 327 327 327 326 324 323 322 321 321 320 320 320 320 320 319 320 320 320 321 322 322 323 323 323 322 321 321 320 320 319 318 318 317 316 315 315 314 313 312 311 310 310 309 309 308 308 307 307 306 306 306 305 305 305 305 305 305 305 305 305 305 305 305 305 305
321 321 321 321 321 321 321 321 321 321 320 320 319 319 320 320 321 322 323 325 326 327 327 327 325 324 323 323 322 321 320 320 320 320 319 319 320 320 320 321 321 322 323 323 322 322 321 320 319 319 318 318 317 316 315 314 314 313 312 311 310 310 309 308 308 307 307 306 306 306 305 305 305 305 305 305 305 305 305 305 304 304 304 305 305 305
321 321 321 322 322 321 321 321 322 321 321 320 320 319 320 321 321 322 324 325 326 327 326 325 325 324 324 323 322 321 320 320 320 320 319 319 319 320 320 321 321 322 323 322 322 321 320 319 319 319 318 317 316 315 314 313 313 312 311 310 310 309 308 308 307 307 306 306 306 306 305 305 305 305 305 305 305 305 305 304 304 304 305 305 305 305
321 321 321 322 322 322 322 322 322 322 321 320 320 319 320 321 322 323 324 325 325 325 324 323 323 324 324 323 322 321 320 320 320 320 320 319 319 319 320 320 321 322 322 322 321 321 320 319 319 318 318 317 316 315 313 312 312 311 310 310 309 308 308 307 307 306 306 306 306 306 306 306 305 305 305 305 305 305 305 304 304 304 305 305 305 305
322 321 321 321 322 322 323 323 322 322 321 321 320 320 320 321 322 323 324 324 323 322 322 321 322 323 323 323 322 321 320 320 319 320 320 319 320 320 319 320 321 321 322 322 321 320 319 318 318 317 317 316 315 314 312 312 311 310 310 309 308 308 307 307 307 306 306 306 306 306 306 306 306 305 305 305 305 305 304 304 304 305 305 305 305 305
323 322 321 322 322 322 322 322 322 322 321 321 321 321 321 321 321 322 322 321 320 320 320 321 322 323 323 322 321 320 320 320 319 319 319 319 319 320 320 320 320 321 321 321 321 320 319 318 317 316 315 315 314 312 311 311 310 310 309 308 308 308 307 307 307 306 306 306 306 306 306 306 306 305 305 305 305 304 304 304 304 304 304 304 305 305
324 323 322 322 322 322 322 322 322 322 322 321 321 321 321 321 321 321 321 320 320 320 320 322 323 323 322 322 321 320 320 319 319 319 319 319 319 320 320 320 321 321 321 321 320 319 318 317 316 315 314 313 312 311 311 310 310 309 308 308 308 307 307 307 307 307 307 307 307 307 306 306 306 305 305 305 304 304 304 304 304 304 304 304 304 304
325 324 323 323 323 322 322 322 322 322 322 321 321 321 321 320 320 320 319 319 319 320 320 322 322 322 322 321 320 320 319 319 319 319 319 320 320 320 320 320 320 320 320 319 318 317 316 315 314 313 312 312 311 310 310 309 309 309 308 308 307 307 307 307 307 307 307 307 307 307 307 306 306 305 305 304 304 304 304 304 304 304 304 304 304 304
326 325 324 324 323 323 322 322 322 322 322 322 321 321 321 320 319 318 318 318 319 320 320 321 321 321 321 321 320 320 319 319 319 319 320 320 321 321 320 319 319 319 319 318 317 316 315 314 313 312 311 311 310 309 309 309 309 308 308 307 307 307 307 307 307 307 307 307 307 307 307 306 306 305 304 304 303 303 303 303 304 304 304 304 304 304
326 326 325 324 323 323 323 322 322 322 322 321 321 321 321 320 319 318 317 318 319 320 321 321 321 321 320 320 320 321 320 320 320 320 320 320 320 320 320 319 318 318 318 317 316 315 314 313 312 311 310 310 309 309 309 309 309 308 308 307 307 307 307 307 307 307 307 307 307 307 307 306 306 305 304 304 303 303 303 303 304 304 304 304 304 304
326 326 325 324 323 323 323 322 322 322 321 321 321 321 321 321 320 319 319 319 319 319 321 322 322 322 321 320 320 320 320 320 320 320 320 319 318 318 318 318 318 317 317 317 315 314 313 312 311 310 310 309 308 308 308 308 308 308 308 307 307 307 307 307 307 307 307 307 307 306 306 306 306 305 304 304 303 303 303 303 304 304 304 304 304 304
326 325 325 324 323 323 323 322 322 322 321 321 321 321 321 321 320 320 320 319 319 320 321 322 323 322 321 320 319 319 318 319 319 319 319 318 317 317 317 317 317 317 317 316 314 312 310 310 310 309 309 308 308 308 308 308 308 308 308 308 307 307 307 307 307 307 307 306 306 306 306 306 305 305 304 304 303 303 303 304 304 304 305 305 304 304
325 324 323 323 323 322 322 322 322 321 321 321 321 321 320 320 320 320 320 319 320 320 321 322 322 322 321 320 318 316 316 317 318 318 318 317 317 317 317 316 316 317 317 316 314 311 309 308 308 308 308 308 307 307 307 307 307 307 307 307 307 307 307 307 307 306 306 306 306 306 306 305 305 304 304 303 303 303 303 304 304 305 305 305 304 304
323 323 322 322 322 322 322 322 321 321 320 320 320 320 320 319 319 319 319 319 320 320 321 322 322 322 321 321 319 318 318 318 317 317 317 317 317 317 317 317 316 316 316 316 315 313 310 308 307 307 307 307 307 307 307 307 307 307 307 307 307 307 307 307 306 306 306 305 305 305 306 305 305 304 304 303 303 303 304 304 305 305 305 305 304 304
323 322 322 322 322 322 321 321 321 320 320 319 319 319 319 318 318 318 319 319 320 320 321 322 322 321 321 321 321 321 320 320 318 317 317 317 316 316 316 316 316 316 315 314 313 313 312 310 308 307 307 307 307 307 307 307 307 307 307 307 307 307 307 306 306 306 305 305 305 305 305 305 304 304 303 303 303 304 304 304 304 304 304 304 304 303
322 322 322 321 321 321 321 321 320 320 319 319 318 318 318 318 318 318 319 320 320 320 320 321 321 320 320 320 320 320 321 320 319 318 317 317 317 317 317 316 316 315 314 312 310 311 312 312 310 308 306 307 307 307 307 307 307 307 307 307 307 307 307 306 306 306 305 305 305 305 305 304 304 304 303 303 304 304 304 304 304 304 304 304 303 302
321 321 321 321 321 320 320 320 319 319 318 318 318 318 317 317 318 319 320 321 320 320 320 320 320 320 319 320 320 320 320 320 319 318 318 318 318 317 317 316 316 315 314 311 310 309 310 310 310 308 307 306 306 306 306 306 307 307 307 307 307 307 307 306 306 305 305 305 305 304 304 304 304 303 303 303 304 304 304 304 304 304 303 303 302 301
321 320 320 320 320 320 319 318 318 318 318 318 317 317 317 317 318 320 321 321 320 319 319 319 318 318 318 319 320 320 320 320 319 318 318 318 318 317 317 317 316 315 314 312 310 310 309 309 308 308 307 306 306 306 306 306 307 307 307 307 307 307 306 306 305 305 305 304 304 304 304 304 303 303 303 303 304 304 304 304 304 303 303 302 301 300
320 320 320 320 320 319 318 318 318 318 318 318 317 317 318 318 319 320 320 320 320 319 319 318 318 318 318 319 320 320 320 319 319 318 318 318 318 317 317 317 316 315 314 312 311 310 310 309 307 306 306 306 306 305 305 306 306 306 306 306 306 306 306 305 305 304 304 304 304 304 304 303 303 303 303 303 304 304 304 304 303 303 302 301 300 299
320 320 319 319 319 319 318 318 318 318 318 318 318 318 318 319 319 320 320 320 319 319 318 318 319 319 319 320 320 320 319 319 318 318 318 317 317 317 317 317 316 315 314 313 313 312 310 309 307 305 305 306 306 306 306 306 305 305 306 306 306 305 305 304 304 304 303 303 304 303 303 303 303 303 303 303 304 304 304 303 303 302 301 300 298 297
320 319 319 319 319 319 318 318 318 318 318 318 318 319 319 319 320 320 320 320 319 319 319 319 319 320 320 320 319 319 318 318 317 317 317 317 317 317 317 317 316 315 313 313 312 312 311 309 308 306 305 305 305 306 306 306 306 305 305 305 305 304 304 303 303 303 303 303 303 303 303 303 303 303 303 304 304 304 304 303 302 301 299 298 296 295
319 319 318 318 318 319 319 319 319 319 319 319 319 319 319 320 320 320 320 320 319 319 319 319 320 320 320 319 318 318 318 317 317 317 317 317 317 317 317 317 316 314 312 310 310 310 310 310 309 308 307 306 306 306 305 305 305 306 305 305 304 303 303 303 303 303 303 303 303 303 303 303 303 303 304 304 304 304 303 302 301 299 297 296 294 294
318 318 318 318 318 319 319 319 319 319 319 319 319 319 319 320 320 320 320 320 320 320 319 319 320 319 318 318 317 318 317 317 317 318 318 318 318 318 317 316 315 313 311 309 308 308 309 309 309 308 307 307 307 307 306 306 305 305 305 305 304 304 303 303 303 303 303 303 303 303 303 303 303 304 304 304 303 303 302 300 298 297 295 294 293 292
318 318 318 318 318 318 319 319 320 320 320 319 319 319 319 320 320 320 319 319 319 319 319 319 318 318 317 317 316 317 317 318 318 318 318 317 317 316 315 313 312 311 310 309 308 308 308 308 308 308 308 307 307 307 306 306 305 305 305 305 304 304 304 303 303 303 303 304 303 303 303 303 303 304 304 303 302 301 299 298 296 295 293 293 292 292
318 318 318 318 318 319 319 319 319 319 319 319 319 319 319 320 320 320 319 319 318 318 317 317 317 317 316 316 315 316 316 317 317 316 316 315 314 313 312 310 309 309 309 309 308 307 307 308 308 308 308 308 307 307 306 305 305 304 304 304 304 304 304 304 304 304 304 304 304 303 303 303 303 303 303 302 300 299 297 295 294 293 292 292 291 291
317 317 318 318 318 318 318 318 318 318 318 318 319 319 319 319 319 319 319 318 318 317 317 316 316 316 316 315 315 314 315 314 314 313 312 311 310 309 308 308 307 308 309 309 308 307 307 306 306 307 307 307 307 307 306 306 305 304 304 304 304 304 304 304 304 304 304 304 304 303 303 303 303 302 301 300 298 296 295 293 293 292 291 291 291 291
317 317 317 317 317 316 316 316 317 317 317 318 318 318 317 317 317 317 317 317 317 317 316 316 315 314 313 313 313 313 312 311 310 309 309 308 308 307 306 306 306 307 308 308 308 308 307 306 306 306 306 306 306 306 306 306 305 305 304 304 304 304 304 304 304 304 304 304 303 303 303 303 302 300 298 297 295 294 293 292 291 291 290 290 290 290
315 315 315 315 315 314 315 315 315 316 316 316 316 316 316 316 316 316 317 317 317 316 316 315 314 313 311 310 310 310 309 308 307 307 307 306 306 306 305 306 306 306 306 306 306 306 306 306 305 305 305 304 304 305 305 305 305 305 304 304 304 304 303 303 303 304 303 303 303 302 302 300 299 297 295 294 293 292 291 291 290 290 290 290 290 290
313 313 313 313 312 312 313 313 314 314 314 314 314 315 315 316 316 316 316 317 317 316 315 313 312 311 311 310 309 308 308 307 306 306 305 305 305 305 305 304 304 305 305 305 305 305 305 305 305 305 304 304 304 304 304 305 305 305 305 304 304 304 303 303 303 303 302 301 301 300 299 298 296 294 293 292 291 291 290 290 290 290 290 290 290 290
312 312 312 312 311 311 312 312 312 313 313 313 313 314 314 315 316 316 316 315 315 314 312 310 309 309 309 308 308 308 308 307 306 305 304 304 304 304 304 303 303 303 303 304 304 304 304 304 304 304 304 304 304 304 304 304 304 305 305 305 304 304 304 303 302 302 301 300 298 297 296 295 293 292 292 291 291 290 290 290 290 290 290 290 290 290
313 313 312 312 311 311 310 310 311 312 312 312 312 312 312 313 314 315 314 314 313 312 310 308 307 307 307 306 306 307 307 307 306 304 304 304 304 304 303 303 303 302 302 302 303 303 303 303 303 303 303 304 304 304 304 304 304 304 304 304 304 303 303 302 301 300 299 298 296 295 294 293 292 291 291 290 290 290 290 290 290 290 290 291 291 291
312 312 312 312 311 310 309 309 309 310 311 311 311 310 309 309 310 311 311 311 310 309 308 307 307 306 306 306 305 305 305 305 304 303 303 303 303 303 302 302 302 302 301 301 301 302 302 302 302 302 302 302 303 304 305 304 303 303 302 302 301 301 300 300 299 298 297 295 294 293 292 291 291 291 290 290 290 290 290 291 291 291 292 292 292 293
309 308 308 308 308 308 307 307 307 307 309 310 310 308 306 305 304 305 306 306 306 306 305 306 306 306 306 305 305 304 304 304 303 302 302 302 302 302 302 302 302 301 301 300 300 301 301 301 300 300 300 300 301 302 303 304 303 302 300 299 298 297 297 296 296 295 294 293 292 292 291 291 290 290 290 291 291 291 291 292 292 293 293 294 294 294
Wind_Speed
38 39 41 42 43 43 46 49 51 53 55 54 51 49 48 50 51 51 50 48 46 44 43 42 40 39 38 38 38 37 35 33 33 32 31 29 27 25 23 22 21 22 23 24 24 24 23 23 22 22 22 22 22 22 22 23 24 25 26 26 26 25 24 23 23 23 22 22 22 21 17 13 9 6 4 5 6 7 7 8 8 8 9 10 11 13
38 38 38 40 43 46 49 52 54 55 55 52 50 48 49 50 51 51 50 49 47 46 44 43 41 39 39 39 39 37 35 34 33 32 30 28 27 25 24 23 22 23 24 25 25 25 24 24 24 24 24 23 23 23 23 24 26 27 28 28 27 26 25 24 24 23 23 22 21 19 15 12 9 6 4 5 7 8 8 8 8 8 8 9 10 11
39 39 39 40 42 46 50 53 56 57 56 52 50 49 50 51 51 52 51 50 48 47 45 44 42 40 40 40 39 38 36 35 34 32 30 28 27 25 24 24 23 24 25 25 26 26 25 25 25 25 25 24 24 24 25 26 27 28 29 29 28 27 25 25 24 24 23 22 20 16 12 9 6 5 4 5 8 9 9 9 8 8 8 9 10 11
40 40 40 40 41 44 49 52 54 55 54 52 51 51 50 51 52 52 52 50 49 48 46 45 42 41 41 40 40 38 37 35 34 32 30 28 27 26 25 24 24 24 25 26 26 26 26 26 25 25 25 25 25 25 26 27 28 30 30 29 28 26 25 25 25 24 23 21 18 14 9 6 6 7 8 9 10 11 10 10 9 9 9 9 10 11
41 41 41 41 41 43 46 49 50 51 51 51 51 51 51 51 52 52 51 50 49 48 47 45 43 41 41 41 40 39 38 36 34 32 30 28 27 26 25 24 24 24 25 26 26 26 26 26 26 26 26 26 26 26 27 29 30 31 31 29 27 25 25 25 25 24 22 20 16 13 9 8 9 10 11 12 12 11 11 10 9 8 8 9 9 10
43 42 42 42 42 43 44 46 48 49 50 51 51 51 51 51 51 51 50 50 50 49 48 46 43 42 41 41 41 40 38 36 34 32 30 29 27 26 26 25 24 24 25 26 26 26 26 26 26 26 26 26 26 27 29 31 32 32 30 28 26 26 26 26 25 23 20 17 15 12 10 10 11 12 12 13 13 12 12 10 9 8 8 8 8 9
44 44 43 43 43 43 44 45 47 49 51 52 52 51 51 50 50 50 50 50 50 50 48 46 44 42 42 42 42 41 39 36 34 31 30 29 28 26 25 24 24 25 25 26 26 26 26 26 27 27 27 27 28 29 31 32 32 31 29 27 26 26 26 25 23 20 18 15 13 12 11 12 13 14 13 13 13 13 13 12 11 10 9 8 8 9
46 46 45 44 44 44 45 46 48 50 51 52 52 51 51 49 49 48 49 49 50 50 49 47 45 43 43 43 43 42 40 37 34 32 31 29 28 26 25 25 25 25 26 26 27 27 27 27 28 28 28 28 29 30 32 32 31 29 27 26 26 26 25 23 21 18 16 14 13 13 13 14 15 15 15 14 14 14 14 13 13 12 11 9 9 10
49 48 48 47 46 46 46 47 48 50 51 51 51 51 51 49 48 47 48 49 49 50 49 47 45 45 44 44 44 43 40 37 34 32 31 30 28 27 26 26 27 27 27 27 28 28 28 29 29 29 29 30 31 32 33 32 29 27 25 25 25 24 23 21 19 16 15 14 14 15 16 16 16 16 15 15 15 14 13 13 13 13 12 12 12 12
51 51 50 50 49 48 47 48 49 50 51 51 50 50 50 49 49 48 48 49 49 50 49 48 46 46 46 45 44 43 40 36 33 32 31 30 29 28 29 29 30 29 29 29 29 30 30 30 31 31 31 31 31 32 32 31 28 26 24 24 23 22 21 19 17 16 15 16 17 17 18 18 18 17 16 15 15 14 12 12 11 12 13 14 14 14
52 52 51 50 50 49 48 49 49 50 51 50 49 49 49 49 49 49 49 49 49 50 49 48 47 46 46 46 44 42 39 36 33 32 31 29 29 30 32 32 32 32 31 31 31 31 32 32 32 32 31 31 32 32 31 29 27 25 24 23 23 21 20 19 18 17 17 18 19 20 19 19 18 18 17 16 15 14 12 11 11 12 14 15 16 16
53 52 51 50 49 49 49 49 50 51 50 49 49 50 50 51 50 49 49 49 50 51 50 49 48 47 46 45 43 40 37 35 33 32 31 30 31 32 34 34 35 34 33 33 33 33 33 34 34 33 32 32 32 31 30 28 26 25 24 23 22 21 21 21 21 21 21 21 21 21 20 19 18 18 17 16 15 13 12 12 12 13 14 16 17 17
54 53 51 50 50 50 51 51 51 51 51 52 52 53 54 53 51 49 48 48 50 52 52 51 49 48 46 44 41 39 36 34 33 33 32 31 32 34 35 36 36 35 35 34 33 34 34 35 35 34 32 32 31 30 29 27 25 24 24 23 22 21 22 23 24 24 24 23 22 21 20 19 17 17 16 15 14 12 12 12 12 13 15 17 18 19
53 52 51 50 50 51 53 53 53 53 54 55 56 56 55 54 51 49 48 49 51 53 54 53 51 49 46 43 40 38 36 35 34 33 32 32 33 35 36 37 36 36 35 33 33 33 34 35 35 33 32 31 30 29 28 26 25 24 24 23 22 21 22 24 26 26 26 25 24 22 20 18 17 16 15 14 13 12 11 11 12 13 15 17 18 19
52 52 51 52 52 53 54 55 56 56 57 57 57 56 55 54 52 50 50 51 53 55 55 54 53 50 47 45 42 40 38 36 35 34 33 33 34 36 37 36 36 35 34 32 31 32 33 33 33 32 31 30 29 28 27 25 24 24 23 22 21 20 21 23 25 27 27 26 25 23 20 18 16 15 14 13 12 12 11 11 12 12 13 15 16 17
54 53 53 54 55 56 57 57 57 57 58 58 57 57 56 55 54 52 52 53 54 56 56 55 53 50 48 47 45 43 40 38 36 35 34 34 35 36 36 36 35 34 33 31 30 30 30 30 30 30 29 29 28 27 26 25 24 23 23 22 21 20 20 22 23 25 26 26 24 22 20 18 16 15 14 13 13 12 12 12 12 12 12 12 13 14
55 55 55 56 56 58 59 59 59 59 58 58 58 58 57 56 55 54 54 54 56 58 58 57 54 51 49 47 46 45 44 41 38 37 36 35 35 36 35 35 34 34 33 31 30 29 29 29 29 29 28 28 27 26 25 24 23 22 22 21 21 21 20 21 22 23 24 24 22 20 18 17 16 16 15 14 13 13 13 13 12 12 12 11 11 12
54 55 56 56 57 58 60 60 61 60 59 59 58 58 58 57 56 55 55 57 59 60 60 59 57 56 53 50 49 48 46 43 40 39 38 37 36 36 35 35 34 34 33 31 30 29 28 28 28 28 27 27 26 25 24 23 22 22 22 22 21 21 21 21 22 22 23 22 21 19 18 17 16 16 15 14 14 13 13 13 13 12 12 11 11 11
54 55 56 56 58 59 60 61 62 62 61 60 60 59 57 57 56 56 56 58 60 62 61 60 58 58 56 54 53 51 48 45 42 40 39 39 37 36 36 35 35 35 34 32 31 29 28 28 27 27 27 26 25 25 24 23 22 22 22 22 22 22 22 22 22 22 22 21 20 18 18 17 16 15 15 14 14 14 13 13 13 12 12 11 11 11
51 55 57 58 58 59 60 62 64 65 64 63 62 61 59 58 57 57 58 59 60 61 60 59 57 57 57 56 55 52 49 46 44 42 41 39 38 37 37 36 36 36 35 33 32 30 29 28 28 27 27 26 25 24 24 24 23 23 23 23 23 23 23 23 23 22 22 21 20 19 18 17 16 15 15 15 14 14 13 13 13 12 12 11 11 11
48 52 56 58 59 60 61 63 65 66 66 65 64 63 62 60 59 59 59 59 59 58 56 54 54 55 56 57 55 52 49 47 45 44 41 40 38 38 38 38 38 37 36 34 33 31 29 28 28 28 27 26 25 25 25 25 25 24 24 24 24 24 24 24 23 23 22 21 20 19 18 17 16 16 15 15 14 14 13 13 12 12 11 10 10 10
47 50 54 57 60 61 63 64 65 66 66 66 65 64 64 62 61 60 59 58 56 55 54 53 53 55 56 57 56 53 50 48 47 45 42 40 39 40 40 39 39 38 37 35 33 32 30 29 29 29 28 27 26 26 26 27 26 25 25 25 25 25 25 25 24 23 22 21 20 19 18 17 17 16 15 15 15 14 13 13 12 11 10 10 9 10
49 49 53 57 60 62 63 64 65 65 66 66 66 66 65 63 62 60 58 56 55 54 53 54 54 55 56 56 55 53 50 48 46 44 42 41 41 41 41 40 40 39 37 35 34 32 31 30 30 29 28 27 27 27 28 28 27 26 26 26 26 26 26 25 24 23 22 21 20 19 19 18 17 17 16 15 15 14 13 12 11 10 9 9 9 10
52 50 53 56 60 62 63 64 64 65 66 66 66 65 64 63 62 60 58 57 56 56 57 56 56 57 57 56 54 52 50 47 44 42 41 40 41 41 41 41 40 39 38 36 34 33 31 30 30 30 29 28 28 29 29 29 28 27 27 26 26 26 26 25 25 23 22 21 21 21 20 20 19 18 17 16 15 15 13 12 11 10 9 9 10 10
56 54 55 57 60 62 63 64 65 66 66 65 65 64 63 62 61 60 60 60 60 60 59 58 57 56 56 55 53 52 48 45 43 41 40 40 41 41 41 41 40 39 38 36 35 33 31 30 30 30 29 29 29 30 30 30 29 28 27 27 27 27 27 26 25 24 23 23 23 23 23 22 21 19 18 17 16 15 13 12 10 10 10 10 11 11
60 59 59 59 60 62 63 65 66 66 66 66 65 64 63 62 61 61 60 60 61 61 59 57 56 55 55 54 53 50 47 44 42 41 41 41 41 42 42 41 40 39 38 36 35 33 31 31 30 30 30 30 30 30 30 30 29 28 28 28 28 28 27 26 25 24 24 24 25 25 25 24 22 20 18 17 16 15 13 12 11 10 10 11 12 12
65 63 62 62 62 61 62 64 66 67 68 68 67 67 66 65 64 62 60 61 62 61 59 56 55 54 54 54 52 49 46 43 42 42 42 41 42 42 42 41 39 38 37 35 34 33 32 31 31 31 32 32 32 31 31 30 29 29 28 28 28 28 28 27 26 25 25 25 26 26 26 24 22 20 18 17 16 15 13 12 11 11 11 12 12 13
68 68 67 66 64 63 62 64 66 68 69 70 70 70 70 69 67 65 64 65 64 62 58 56 54 53 54 55 54 51 47 45 44 43 42 41 40 40 40 39 38 36 35 35 34 33 32 32 32 32 33 33 33 32 31 30 29 29 29 28 28 28 28 28 27 26 26 26 26 26 25 24 23 20 19 17 16 15 13 12 11 11 11 12 12 13
70 70 70 70 68 65 64 64 65 68 70 71 72 73 73 72 71 70 70 69 66 61 57 55 54 55 56 56 55 53 50 47 45 43 42 40 38 38 38 37 36 35 35 35 34 33 32 32 33 33 34 34 34 33 31 30 30 29 29 29 29 29 29 28 28 27 27 27 26 26 25 24 23 21 19 18 16 15 13 12 11 11 11 12 12 12
71 71 71 71 70 68 66 64 65 67 69 71 73 74 74 74 74 73 73 70 66 60 56 54 54 56 57 56 54 52 49 47 46 43 41 39 38 37 37 37 36 36 35 35 35 34 33 33 33 34 35 35 35 34 33 32 31 31 31 31 30 30 30 29 28 27 27 27 27 26 26 25 23 21 19 18 16 14 12 11 10 11 11 11 11 11
72 71 70 69 68 67 65 64 64 65 67 70 71 72 73 73 73 72 71 68 65 60 56 55 55 56 56 56 53 50 49 47 46 44 42 40 39 39 38 37 37 37 37 36 37 37 35 35 34 35 36 36 36 36 36 35 34 33 33 33 32 32 31 29 28 28 27 27 27 27 26 25 23 21 19 17 15 13 11 10 10 11 11 11 11 11
71 69 68 67 65 64 63 62 62 63 65 67 69 70 71 71 70 69 67 66 63 60 57 56 56 56 56 55 53 52 51 49 46 44 42 41 40 39 38 38 37 37 38 38 38 38 37 38 37 37 37 37 38 38 37 37 36 36 36 35 34 33 32 30 29 29 28 28 28 27 26 24 23 21 18 16 13 11 10 10 11 11 12 12 11 11
70 68 66 64 63 61 61 61 61 61 63 64 66 67 67 67 66 65 64 63 61 59 56 55 55 55 54 54 54 53 52 50 47 45 43 42 41 40 39 38 38 38 38 39 39 40 39 40 41 40 39 39 39 39 39 39 38 38 37 36 35 33 32 31 30 29 29 29 28 27 26 24 22 20 17 14 11 10 10 11 12 12 12 12 11 11
68 65 63 61 60 59 59 60 60 61 62 63 63 64 64 63 62 60 59 59 59 58 56 54 53 52 52 52 52 52 51 49 48 46 44 43 41 40 40 39 40 40 40 41 41 41 41 42 43 43 43 42 41 41 41 40 40 39 37 36 34 33 31 31 30 30 29 29 28 27 25 23 20 17 14 12 10 10 11 12 12 13 12 12 12 11
64 62 60 59 58 57 58 58 59 59 60 60 60 60 59 59 59 57 56 56 57 57 57 55 52 50 49 49 51 52 51 49 48 45 43 42 41 41 40 41 42 42 43 44 44 43 42 42 44 45 46 45 44 43 43 42 41 39 38 36 34 32 31 30 30 30 30 29 28 26 24 21 18 15 12 10 10 11 12 13 13 13 13 13 12 12
59 57 57 57 57 57 56 56 57 57 57 57 56 56 56 56 56 56 56 56 57 59 59 58 55 51 49 49 51 52 52 48 45 43 42 41 40 40 41 42 43 43 44 45 46 46 44 44 45 46 47 48 47 46 44 43 42 40 38 36 34 32 31 30 30 30 29 28 26 24 22 19 16 13 11 11 11 12 13 14 14 14 14 13 13 13
56 55 55 56 57 57 56 55 55 54 54 54 54 53 54 55 56 56 56 57 59 60 61 59 56 52 50 51 52 52 49 44 41 39 39 39 39 40 41 42 43 44 45 47 48 48 47 46 47 48 49 49 49 48 47 45 43 41 39 37 35 33 31 30 29 29 28 27 25 23 20 17 15 12 11 12 12 13 14 15 15 14 14 14 13 13
55 55 56 57 57 57 56 55 54 53 53 53 53 54 54 55 56 56 57 58 60 61 61 59 55 53 52 53 54 51 46 40 38 37 37 38 39 40 41 42 43 45 46 47 49 49 49 49 50 50 50 50 49 49 48 46 44 42 40 37 35 32 31 30 29 28 27 26 24 21 19 16 15 13 13 13 13 14 15 15 15 15 14 14 14 14
56 56 57 57 57 57 56 55 54 53 53 53 54 55 55 55 56 57 58 60 61 61 60 58 55 54 54 55 54 49 43 39 37 37 37 38 39 40 42 43 45 46 47 49 50 51 51 50 51 52 52 51 50 49 48 46 45 43 41 38 35 33 31 30 29 28 26 24 22 20 18 17 15 15 14 14 15 16 16 16 16 15 15 14 14 14
56 57 57 57 57 57 56 56 55 54 54 54 55 55 56 56 57 58 59 60 61 61 59 58 56 55 55 54 51 47 42 38 37 37 38 39 40 41 42 44 46 47 49 50 51 51 50 49 49 50 51 51 51 50 48 47 45 43 41 38 36 33 32 30 29 27 25 23 21 20 19 17 16 16 16 16 16 16 16 16 16 15 15 14 14 14
56 56 57 57 57 57 56 56 56 55 55 56 56 56 57 57 58 59 59 59 59 59 58 57 56 55 54 52 48 44 40 39 38 39 40 41 41 42 43 45 47 48 49 50 51 49 48 46 46 47 48 48 48 48 47 46 45 43 41 39 37 34 32 30 29 27 25 23 21 20 18 18 17 17 17 17 17 17 17 16 16 15 15 14 14 13
56 56 57 57 57 57 57 56 56 56 56 57 57 58 59 59 60 60 59 58 57 56 55 54 54 53 51 48 45 43 41 40 40 41 41 42 42 43 43 44 45 46 46 48 48 47 45 43 43 44 46 46 46 46 47 46 44 42 40 38 36 34 32 30 28 27 24 22 21 20 19 18 17 17 17 17 17 17 17 16 16 15 14 14 14 13
56 57 57 57 57 58 58 58 58 58 58 59 59 60 60 60 60 60 59 58 56 55 54 53 52 51 49 46 44 43 42 42 42 42 41 41 41 42 42 42 42 42 43 45 46 46 43 42 41 41 41 41 42 44 46 46 44 42 39 37 35 33 31 30 28 26 24 22 21 20 19 18 18 18 18 18 17 17 17 16 15 15 14 14 13 13
56 57 57 58 58 58 59 59 60 61 60 60 60 60 60 60 60 59 58 57 55 54 52 51 50 49 47 46 45 44 42 42 41 40 39 39 39 40 40 39 39 39 40 42 44 44 43 42 40 38 37 37 39 40 42 43 42 41 38 35 33 31 30 28 27 25 23 22 21 20 20 19 18 18 18 18 17 17 16 15 15 14 14 13 13 12
57 58 58 59 60 60 60 61 61 61 61 60 60 60 59 58 57 56 56 54 53 52 51 50 49 47 46 45 45 44 42 41 39 37 36 37 38 39 39 38 38 38 39 40 40 40 41 41 40 38 36 36 36 38 39 40 40 38 36 34 31 29 28 26 25 24 23 22 21 21 20 19 19 18 18 17 17 16 15 15 14 13 13 13 12 12
57 58 58 59 59 59 59 60 60 60 59 59 58 58 56 55 53 52 51 50 49 49 50 50 49 47 46 45 45 44 42 40 38 37 37 38 39 40 39 38 37 37 39 39 37 36 37 37 37 37 36 35 35 35 36 36 36 35 34 32 30 29 27 26 24 23 22 22 21 20 20 19 19 18 17 17 16 15 15 14 13 13 13 12 12 12
55 56 56 57 57 57 57 57 57 57 56 55 55 54 53 51 50 49 48 48 48 49 49 50 49 48 47 46 45 43 42 41 41 41 42 42 43 42 40 38 36 36 37 38 37 36 35 34 34 33 34 34 34 34 34 33 33 32 31 30 29 28 27 26 24 23 22 21 20 20 19 19 18 18 17 16 15 15 14 14 13 13 12 12 11 11
50 51 52 53 53 53 54 54 54 54 53 53 52 51 51 50 49 49 49 49 49 50 50 49 48 47 47 46 45 44 43 43 43 44 46 46 45 43 40 38 36 36 36 37 37 37 36 35 33 32 31 31 31 31 31 31 30 29 28 28 27 27 26 25 24 23 22 21 20 19 19 18 17 17 16 15 15 14 14 13 13 12 12 12 11 11
45 46 48 49 50 51 51 52 52 53 52 51 50 50 50 50 50 50 50 51 51 51 50 49 48 47 46 45 45 44 44 45 46 47 48 48 47 44 41 39 37 37 37 38 38 38 37 36 34 32 30 28 28 28 28 28 27 26 25 25 25 25 24 24 23 22 22 21 20 19 18 18 17 16 15 15 14 14 14 13 13 12 12 11 11 11
44 45 46 48 49 50 51 51 52 52 52 52 51 50 50 50 50 51 51 51 51 50 50 50 49 48 47 46 46 46 47 48 49 49 49 49 47 45 42 40 39 39 39 40 39 39 38 36 34 31 29 27 26 26 26 26 26 25 24 23 23 23 23 23 22 22 21 20 20 19 18 17 17 16 15 14 14 14 13 13 13 12 12 11 11 11
44 45 46 47 49 50 51 51 51 52 52 52 52 51 51 50 49 50 50 50 50 50 50 50 49 49 48 48 49 49 49 50 51 51 50 49 47 45 43 41 41 41 41 41 40 38 37 35 32 30 27 26 24 23 24 25 25 25 25 24 23 23 22 22 22 21 21 20 19 19 18 17 16 16 15 15 14 14 13 13 12 12 12 11 11 11
Wind_Direction
223 222 221 220 220 222 226 228 229 230 232 235 238 240 241 240 240 239 237 235 231 228 225 223 222 220 219 218 217 213 207 204 207 214 220 223 223 221 220 221 225 231 237 241 244 245 247 248 250 251 253 254 256 259 261 263 264 264 263 262 262 262 263 264 266 269 274 279 283 284 284 284 282 271 241 215 207 208 210 210 210 210 212 213 214 216
223 223 224 223 222 223 225 228 230 231 233 236 240 241 241 239 238 237 235 233 229 226 223 222 220 218 217 215 213 209 205 203 207 213 218 221 221 220 219 221 226 232 238 242 244 245 246 248 249 250 251 253 256 259 262 264 264 264 263 262 260 259 259 261 264 269 275 280 281 281 281 281 279 273 248 212 202 205 211 213 212 212 214 215 212 214
221 222 223 223 223 223 225 228 229 231 234 237 240 241 240 238 237 235 233 230 226 223 222 220 218 216 215 213 210 207 204 204 208 213 217 219 219 219 220 222 226 232 238 242 245 246 247 248 250 251 252 253 256 259 262 264 264 263 262 259 257 256 257 260 265 271 277 280 279 277 275 271 265 255 238 207 198 200 208 210 209 208 211 214 210 208
221 221 221 221 221 223 224 227 230 232 234 237 238 238 237 236 235 234 232 228 224 221 219 218 217 215 213 211 209 206 204 205 209 213 216 218 218 219 220 223 228 234 240 244 246 248 249 250 251 252 253 255 258 260 263 263 262 261 258 256 255 255 258 263 268 273 278 278 275 269 261 239 213 204 205 199 195 196 202 206 208 211 212 213 208 204
220 220 220 220 220 221 223 226 229 232 234 235 235 234 233 232 232 232 230 227 223 219 217 216 215 214 211 209 208 206 206 207 209 212 215 217 218 219 221 224 228 234 241 246 248 250 251 252 253 254 255 257 259 262 263 262 260 259 257 255 256 258 262 266 270 273 275 274 269 261 247 219 200 197 202 204 205 206 210 217 222 221 216 213 208 204
219 219 220 220 221 221 222 225 228 231 231 231 230 229 229 229 229 229 228 225 221 218 216 215 214 212 210 209 208 207 207 208 209 212 214 216 217 219 221 224 229 235 242 247 250 252 253 254 255 256 257 259 261 262 262 261 260 259 259 259 261 262 264 267 268 270 270 266 260 252 237 213 200 198 203 210 217 223 229 236 237 231 222 219 216 213
217 218 219 220 221 221 222 225 227 229 228 227 226 225 225 225 226 226 225 223 219 216 214 214 213 211 209 209 209 209 208 208 209 211 213 215 217 219 222 224 228 235 242 248 251 253 254 255 255 256 258 260 261 262 261 259 259 260 262 265 266 266 266 266 266 265 262 255 248 240 228 211 200 197 201 209 218 226 232 238 240 237 233 228 223 218
215 216 216 218 219 221 222 225 227 228 228 226 224 222 221 221 221 222 222 220 217 215 213 212 211 210 209 209 210 210 209 208 208 209 211 213 216 219 221 223 227 234 242 248 252 253 254 255 255 256 257 259 260 260 259 257 258 261 265 267 267 266 265 264 263 260 254 245 238 232 224 214 206 201 200 205 213 220 225 230 235 236 234 229 224 218
215 215 214 215 217 219 221 223 226 228 228 226 224 221 218 217 216 217 217 216 214 213 212 211 211 210 210 210 210 210 208 207 207 209 210 212 214 216 218 220 225 233 241 248 252 254 255 255 255 255 256 258 259 259 258 256 258 263 267 266 264 262 260 259 257 253 244 234 229 226 222 219 215 212 209 209 212 217 221 226 231 234 233 230 227 225
216 215 214 214 215 217 220 221 224 226 227 225 223 221 219 216 214 213 212 211 211 211 211 211 210 210 210 210 210 209 207 206 207 209 211 212 213 213 215 218 224 231 240 248 252 254 254 254 253 254 255 257 258 258 257 257 259 263 265 263 260 255 250 247 246 242 234 226 221 220 219 220 221 222 222 221 222 225 228 233 237 236 234 232 230 231
216 216 215 215 215 216 219 222 223 224 225 222 220 219 218 217 215 212 209 209 208 208 209 210 210 210 211 211 209 208 206 206 207 209 210 211 211 212 214 218 224 230 239 247 252 254 254 253 252 253 254 256 257 257 257 257 260 263 263 260 255 247 237 231 230 229 225 220 218 217 217 218 222 225 228 230 232 234 238 242 242 238 233 230 229 231
215 215 214 214 214 215 217 220 222 223 221 216 212 211 211 213 214 214 212 210 208 207 207 208 209 210 211 211 209 206 205 206 207 209 209 210 210 211 214 219 224 230 237 245 251 253 253 252 251 252 253 255 256 256 256 258 260 262 261 258 251 240 227 219 218 220 219 218 217 217 217 219 222 226 229 231 234 237 241 244 242 236 229 225 224 225
215 214 213 213 213 213 214 215 216 216 215 212 209 207 207 209 211 213 214 214 211 208 207 206 207 209 210 210 208 206 205 207 208 209 209 210 210 211 215 219 224 230 236 244 250 253 252 251 250 251 252 253 254 255 256 257 259 260 259 255 248 236 222 214 213 215 217 218 219 219 220 222 225 227 229 231 233 236 239 242 242 238 231 225 222 223
213 212 210 210 211 212 213 213 213 212 212 213 213 213 212 212 211 211 211 211 210 208 206 205 205 206 207 207 207 206 207 208 209 209 210 211 211 212 215 219 224 230 236 244 249 251 251 249 249 249 250 251 252 253 254 256 257 258 256 252 244 233 221 214 213 214 217 219 222 224 225 227 228 228 228 228 230 232 235 237 238 236 231 226 224 225
211 208 206 207 208 210 212 213 213 213 214 216 216 215 214 212 211 210 209 207 206 205 204 203 203 204 204 204 205 206 207 208 209 209 210 211 212 213 215 219 224 230 236 243 248 249 248 247 247 247 248 250 251 252 252 253 254 255 254 248 239 229 221 215 213 214 217 221 225 227 229 229 228 226 225 225 226 227 229 230 230 229 227 225 224 226
211 208 206 206 208 210 212 213 214 215 216 216 215 213 210 209 210 210 209 208 206 204 202 201 201 202 202 203 204 205 206 208 209 209 209 211 212 213 215 219 224 230 236 241 244 245 244 244 245 246 247 249 250 250 250 250 252 252 250 243 234 225 219 215 213 213 217 221 225 228 229 227 224 222 221 222 223 224 225 225 224 223 222 222 223 224
211 209 208 207 208 210 212 213 214 215 216 216 214 213 212 212 212 212 210 209 206 203 201 200 199 199 201 203 204 205 206 208 209 210 209 211 213 214 216 220 225 231 236 239 241 242 242 242 243 245 247 248 248 248 247 247 248 248 244 236 227 220 216 212 211 212 215 219 222 224 223 221 219 218 218 219 221 222 223 223 222 221 221 221 222 224
211 210 209 208 209 210 212 213 214 215 216 215 214 214 215 215 214 213 211 208 205 203 201 200 199 199 200 202 204 206 205 206 208 209 209 210 213 216 218 221 226 232 235 238 239 239 240 241 243 245 246 246 246 244 243 243 243 242 237 229 221 216 212 210 209 209 212 214 215 216 215 214 214 214 216 217 219 221 223 223 223 222 222 222 223 225
212 212 211 210 211 212 213 213 213 214 214 214 214 214 212 213 212 211 209 207 205 203 202 200 200 201 202 203 206 207 205 205 207 208 209 210 213 216 219 222 227 232 235 236 237 237 238 239 242 244 245 245 243 240 238 237 238 236 230 222 216 212 209 207 206 206 207 207 208 208 208 209 210 211 214 216 218 220 222 222 223 223 223 224 226 227
213 213 213 213 213 212 213 214 214 214 215 216 216 215 212 211 209 207 206 205 205 204 204 203 202 203 205 207 208 208 205 204 205 206 208 209 212 216 220 223 227 231 233 235 235 235 236 237 240 242 243 242 239 236 232 231 231 229 223 217 212 209 206 205 204 203 202 202 203 204 205 207 209 211 214 216 218 219 220 220 221 222 223 226 228 231
214 216 217 217 215 213 213 215 216 216 216 216 216 215 213 210 208 205 205 204 203 204 205 207 208 209 210 210 209 208 205 204 204 205 206 208 212 216 220 223 227 230 232 233 234 234 234 236 238 240 240 238 235 230 226 225 225 223 218 213 209 207 205 203 202 201 200 200 202 204 206 208 211 214 216 218 219 220 219 219 219 221 224 228 232 236
218 220 223 222 219 218 218 218 218 217 216 216 214 213 212 209 207 204 204 202 203 204 207 210 212 213 214 212 210 209 207 204 204 204 206 207 211 217 220 223 226 229 230 232 233 233 233 235 236 238 238 235 230 225 220 220 220 218 214 210 207 205 204 203 201 200 200 201 204 207 210 213 215 218 220 221 221 221 219 218 219 222 227 232 238 242
222 224 226 224 222 222 221 221 220 218 217 217 217 217 215 213 210 207 204 203 204 206 209 211 213 214 213 211 210 209 208 206 205 206 206 207 211 216 220 223 225 227 229 231 232 232 232 233 234 235 234 231 225 219 216 215 216 215 211 208 206 205 204 202 201 200 201 204 208 212 215 217 219 221 223 224 224 222 220 219 221 225 231 238 244 249
225 225 228 226 224 222 221 221 220 219 218 218 218 219 218 216 213 210 207 206 207 209 212 212 211 210 209 208 208 208 207 206 205 205 206 209 213 216 219 221 223 225 228 230 230 230 230 230 230 230 228 225 219 215 212 212 212 212 210 207 206 205 204 202 201 202 204 207 212 216 218 219 221 223 225 225 225 223 221 221 224 230 237 244 250 254
228 227 228 227 225 223 221 220 220 219 218 217 216 216 215 213 210 209 208 208 209 211 211 209 206 205 206 206 207 207 207 205 205 205 207 210 214 218 219 221 222 223 225 227 228 227 227 226 225 224 221 218 214 211 210 210 210 210 208 207 205 204 204 203 203 203 206 210 215 218 219 220 220 222 224 225 224 223 223 225 229 235 243 250 256 260
231 229 227 226 225 223 221 221 220 220 218 216 214 213 211 209 207 207 206 207 209 209 207 203 202 203 205 207 207 207 206 205 206 207 209 212 215 217 218 220 222 222 223 224 224 224 222 221 219 217 215 212 210 208 208 208 209 209 208 206 205 205 204 204 205 206 209 213 217 218 218 218 219 221 223 224 223 224 225 228 233 239 247 255 260 263
234 231 227 225 224 223 222 221 220 220 218 217 215 214 212 210 208 206 206 208 210 209 204 200 199 202 206 208 208 207 206 206 207 208 210 212 214 216 217 218 220 220 221 221 221 220 218 216 215 212 210 208 206 206 207 208 209 209 209 207 206 206 206 207 208 210 213 216 218 218 217 217 218 220 222 222 223 225 228 232 237 244 252 259 263 266
236 233 228 224 222 222 222 221 220 219 218 217 216 216 215 213 210 208 208 211 212 209 204 201 200 202 205 209 209 208 207 207 208 209 211 212 213 215 216 217 218 219 219 218 218 218 216 213 211 209 207 205 203 203 204 207 209 210 210 209 208 209 210 211 212 213 214 216 217 216 216 216 217 219 221 222 224 226 230 235 241 249 256 261 264 265
233 232 228 224 222 221 221 221 220 219 218 217 217 217 217 216 214 213 214 215 212 207 203 203 203 205 207 209 210 210 208 208 208 208 209 209 211 214 216 217 218 218 218 216 215 214 211 209 207 205 203 202 201 201 202 204 207 209 210 211 211 212 213 214 214 213 214 214 214 215 215 216 218 220 222 224 226 229 233 238 245 252 259 261 261 261
227 225 222 221 220 220 219 219 218 218 218 218 218 218 219 219 218 218 218 216 212 207 202 203 205 206 207 208 209 208 208 208 208 207 208 207 209 213 216 216 218 219 219 214 209 205 204 205 204 202 201 200 200 199 200 201 203 205 207 208 210 212 213 214 213 212 211 211 212 213 215 217 219 222 225 227 229 232 237 243 251 257 259 259 256 253
220 218 216 216 217 217 217 217 217 217 217 218 219 219 220 220 220 219 218 216 212 207 203 203 204 205 206 206 205 204 205 207 207 207 207 208 210 214 216 216 218 221 222 217 208 199 197 200 201 200 200 199 199 199 199 200 200 201 202 204 206 209 211 211 210 209 208 209 210 213 216 218 221 224 227 229 232 236 243 250 255 259 259 257 254 250
215 214 214 214 214 214 215 215 215 215 216 217 218 218 219 219 219 218 217 214 211 207 204 203 204 205 206 207 207 206 207 207 208 208 208 209 212 215 218 218 219 221 223 222 216 206 196 195 196 197 198 199 200 200 200 200 200 201 201 202 204 206 209 209 208 207 207 208 211 214 217 220 223 226 228 231 235 241 248 255 259 260 260 258 257 255
213 212 212 212 212 212 213 213 213 213 213 214 215 216 217 217 216 215 214 212 210 206 204 204 204 205 206 209 211 212 212 212 211 211 211 210 212 215 219 220 220 220 219 218 216 212 204 198 194 194 195 198 200 201 201 201 202 203 204 204 205 207 209 210 209 208 208 209 211 214 217 221 224 227 229 233 239 246 254 258 261 262 263 262 262 263
210 210 210 210 210 211 211 211 211 211 211 212 213 213 214 214 213 211 210 209 208 206 205 205 206 207 208 209 211 213 215 215 215 214 213 212 213 216 219 220 220 219 215 210 207 207 206 202 196 192 192 196 199 201 202 202 203 205 207 208 209 211 212 212 211 210 210 210 212 215 218 222 225 228 231 237 244 251 257 260 262 264 264 265 266 267
207 207 207 207 207 207 208 208 208 208 208 209 210 211 211 210 209 208 207 206 206 206 207 209 211 213 214 214 214 214 215 215 215 215 214 214 216 218 220 221 221 220 214 208 204 202 201 200 197 192 190 192 195 198 202 202 204 206 209 211 213 214 215 214 213 211 210 211 213 216 220 224 228 231 235 241 248 254 258 260 262 264 265 266 267 268
202 203 204 204 204 204 203 203 203 203 205 206 206 207 207 207 207 207 206 206 206 207 209 212 214 217 220 221 220 218 216 214 213 213 214 216 219 220 221 222 223 221 215 209 205 203 200 198 196 194 191 190 190 194 199 202 204 205 207 210 212 213 214 213 212 210 211 212 215 219 223 227 231 234 238 243 249 253 257 260 261 263 264 265 266 267
201 201 202 202 202 200 199 199 199 200 201 202 202 202 203 204 205 206 207 208 209 210 211 213 215 218 221 223 223 220 215 212 211 212 214 218 221 224 224 225 225 223 217 211 207 205 201 197 193 191 191 190 191 192 195 199 202 203 205 207 209 209 208 208 208 209 211 214 217 222 225 229 231 234 239 244 248 253 256 258 260 261 262 264 264 264
200 200 200 200 199 198 196 196 196 197 198 199 199 199 200 202 204 206 208 210 211 212 212 213 215 217 219 221 220 217 213 212 213 215 218 221 224 227 227 226 225 224 220 215 211 208 202 196 190 187 188 191 193 194 196 197 199 200 203 204 205 204 203 203 205 208 211 215 219 222 226 228 231 234 239 244 249 252 255 257 259 260 261 262 262 262
197 196 196 196 196 196 195 195 195 197 198 198 198 199 201 203 205 207 209 211 211 212 212 213 214 216 217 217 215 213 213 215 217 221 224 226 229 230 229 227 224 222 219 215 212 209 204 198 193 190 188 190 192 195 197 198 199 200 201 201 200 199 200 201 204 208 212 216 219 222 224 227 230 234 238 243 247 251 253 255 257 258 258 259 258 257
194 194 193 193 194 196 197 197 198 198 199 199 200 201 202 204 205 207 209 209 210 210 211 212 213 214 215 214 213 212 214 217 220 224 227 230 232 232 232 229 225 220 214 209 206 205 203 200 197 195 193 192 193 194 195 197 200 201 200 198 196 196 198 202 206 210 214 217 219 222 223 226 230 234 238 242 246 249 251 252 254 254 255 254 254 253
193 192 191 192 193 196 198 200 201 201 201 201 201 201 202 203 204 204 205 206 206 207 209 210 211 212 212 211 211 212 214 217 221 225 228 230 231 232 232 229 225 218 210 204 202 201 201 199 197 195 194 194 194 195 195 197 199 201 200 198 197 197 199 203 207 211 215 218 220 222 223 226 230 234 238 241 245 247 249 250 250 250 250 249 249 249
193 192 191 192 193 194 197 200 201 202 203 202 202 202 202 203 203 203 202 201 201 203 204 206 207 207 208 209 210 212 214 217 220 223 225 226 227 227 226 224 220 216 209 203 199 199 199 199 198 197 196 196 195 195 196 197 198 199 200 200 200 200 202 205 210 213 216 218 220 222 224 227 230 233 237 240 242 244 246 246 246 245 245 245 245 245
192 192 193 194 194 195 197 198 199 200 200 201 201 201 202 202 203 202 201 200 199 200 201 202 204 205 205 206 208 210 213 215 217 218 219 220 220 220 218 216 214 211 207 201 197 197 198 199 200 200 200 199 198 197 196 196 196 197 199 201 202 202 203 207 211 214 216 218 220 222 224 227 230 232 235 237 239 240 241 242 242 241 240 239 239 240
192 193 194 194 195 195 196 195 196 196 197 197 198 199 199 200 201 201 200 199 198 198 199 201 203 205 205 206 206 207 209 211 212 212 212 212 212 211 209 207 206 206 205 200 197 196 197 198 200 201 202 202 202 200 199 197 196 196 198 200 203 205 207 210 213 215 217 218 220 222 224 226 228 231 233 234 235 236 236 236 236 236 236 236 235 236
192 192 192 192 191 190 190 191 192 193 194 195 195 196 197 197 198 198 198 197 197 198 200 202 203 203 202 203 203 203 202 203 203 203 203 203 203 202 201 200 200 201 200 199 198 197 197 198 199 200 202 203 203 203 201 200 198 198 198 200 202 206 210 214 216 217 217 218 219 221 223 224 226 228 229 230 231 231 231 231 231 232 232 232 232 233
189 188 188 187 187 186 186 187 189 189 190 191 193 194 194 195 196 197 198 198 198 200 202 205 205 201 199 198 198 196 194 192 192 193 194 194 194 194 194 195 196 197 197 197 197 199 200 201 200 200 200 200 201 202 203 202 200 199 200 201 202 204 207 210 212 214 215 217 218 219 220 222 223 224 224 225 226 226 226 227 227 227 228 228 229 230
185 184 183 183 183 183 184 185 186 187 187 188 189 191 193 194 195 197 199 200 201 202 204 205 204 201 199 196 194 191 187 185 185 186 187 188 188 189 190 191 192 193 194 194 196 198 200 201 201 201 200 198 197 198 200 201 202 201 202 202 203 203 205 206 208 209 211 213 214 216 217 218 219 219 220 220 220 221 222 223 223 224 224 225 226 228
185 183 182 182 182 182 182 183 185 185 185 186 187 189 192 194 196 198 199 201 203 203 201 199 197 196 194 193 191 190 186 183 182 182 183 183 184 185 187 187 189 190 192 193 195 196 197 197 198 199 200 198 196 195 195 197 199 201 202 202 203 203 203 204 205 206 208 209 210 212 213 214 215 215 215 215 216 217 218 219 219 220 221 222 224 226
191 189 187 186 185 183 183 183 184 185 185 186 186 187 190 193 196 198 199 200 201 200 197 194 192 190 187 185 184 185 183 181 180 180 181 182 182 183 184 185 186 187 189 191 193 194 194 193 193 193 195 196 196 195 193 193 194 196 198 199 200 201 201 201 203 204 206 207 208 208 209 210 210 211 211 211 212 214 216 216 217 218 219 221 222 224
195 194 193 191 189 187 185 184 184 184 185 186 186 186 187 189 192 194 196 197 197 196 195 193 190 187 183 180 179 178 178 177 177 177 179 180 181 181 182 183 184 184 186 188 189 190 190 188 187 187 189 191 194 196 195 193 191 191 192 194 196 198 198 199 200 202 203 204 205 205 206 206 207 207 207 207 209 212 215 216 217 217 218 220 222 224
192 192 191 190 189 187 186 184 183 183 184 185 185 185 183 183 184 186 188 188 188 188 188 189 188 185 181 178 177 176 176 176 175 176 177 179 181 181 182 182 183 183 183 183 183 183 182 180 178 178 181 185 189 193 197 196 193 191 190 190 192 194 195 197 198 199 200 200 201 202 202 203 204 204 205 205 207 209 212 215 217 218 220 221 223 224